Weather History for KGSO - May, 2013

Change the Weather History Date:

Wednesday, May 22, 2013

  Actual Average Record
Temperature  
Mean Temperature 74 °F 68 °F  
Max Temperature 83 °F 79 °F 97 °F (1941)
Min Temperature 65 °F 58 °F 40 °F (2002)
Degree Days  
Heating Degree Days 0 1  
Month to date heating degree days 84 58  
Since 1 July heating degree days 3624 3604  
Cooling Degree Days 9 5  
Month to date cooling degree days 71 69  
Year to date cooling degree days 108 107  
Growing Degree Days 24 (Base 50)    
Moisture  
Dew Point 65 °F    
Average Humidity 76    
Maximum Humidity 93    
Minimum Humidity 58    
Precipitation  
Precipitation 0.16 in 0.11 in 1.49 in (2003)
Month to date precipitation 2.74 2.31  
Year to date precipitation 18.01 15.63  
Snow  
Snow 0.00 in - - ()
Month to date snowfall 0.0  
Snow Depth 0.00 in    
Sea Level Pressure  
Sea Level Pressure 29.96 in    
Wind  
Wind Speed 10 mph (SSW)    
Max Wind Speed 18 mph    
Max Gust Speed 24 mph    
Visibility 9 miles    
Events Rain    
T = Trace of Precipitation, MM = Missing Value Source: NWS Daily Summary

Daily Weather History Graph

Daily Weather History Graph

Search for Another Location

Airport or City:

Trip Planner

Search our weather history database for the weather conditions in past years. The results will help you decide how hot, cold, wet, or windy it might be!

Date:

Astronomy

May. 22, 2013 Rise Set
Actual Time 6:08 AM EDT 8:24 PM EDT
Civil Twilight 5:39 AM EDT 8:53 PM EDT
Nautical Twilight 5:03 AM EDT 9:29 PM EDT
Astronomical Twilight 4:25 AM EDT 10:08 PM EDT
Moon 5:49 PM EDT (5/22) 4:06 AM EDT (5/22)
Length of Visible Light 15h 14m
Length of Day
14h 15m
Waxing Gibbous, 91% of the Moon is Illuminated
May 22
Waxing Gibbous
May 25
Full
May 31
Last Quarter
Jun 8
New
Jun 16
First Quarter

Hourly Weather History & Observations

Time (EDT) Temp. Heat Index Dew Point Humidity Pressure Visibility Wind Dir Wind Speed Gust Speed Precip Events Conditions
12:37 AM 69.8 °F - 66.2 °F 88% 30.02 in 9.0 mi SW 6.9 mph - N/A   Mostly Cloudy
12:54 AM 71.1 °F - 66.0 °F 84% 29.99 in 9.0 mi WSW 8.1 mph - N/A   Overcast
1:14 AM 69.8 °F - 66.2 °F 88% 30.02 in 10.0 mi SW 8.1 mph - N/A   Overcast
1:23 AM 69.8 °F - 66.2 °F 88% 30.02 in 10.0 mi SW 6.9 mph - N/A   Mostly Cloudy
1:54 AM 69.1 °F - 66.0 °F 90% 29.96 in 9.0 mi SSW 9.2 mph - N/A   Scattered Clouds
2:54 AM 69.1 °F - 66.0 °F 90% 29.94 in 8.0 mi SSW 9.2 mph - N/A   Clear
3:24 AM 68.0 °F - 66.2 °F 94% 29.97 in 7.0 mi South 11.5 mph - N/A   Scattered Clouds
3:41 AM 68.0 °F - 66.2 °F 94% 29.96 in 7.0 mi South 12.7 mph - N/A   Mostly Cloudy
3:54 AM 68.0 °F - 66.0 °F 93% 29.93 in 7.0 mi South 13.8 mph 18.4 mph N/A   Mostly Cloudy
4:54 AM 66.9 °F - 64.9 °F 93% 29.93 in 8.0 mi SSW 10.4 mph - N/A   Scattered Clouds
5:16 AM 66.2 °F - 64.4 °F 94% 29.97 in 8.0 mi SW 6.9 mph - N/A   Mostly Cloudy
5:54 AM 68.0 °F - 64.9 °F 90% 29.95 in 9.0 mi SW 11.5 mph - N/A   Overcast
6:18 AM 68.0 °F - 64.4 °F 88% 29.99 in 7.0 mi SW 9.2 mph - N/A   Overcast
6:54 AM 68.0 °F - 64.9 °F 90% 29.97 in 7.0 mi SW 9.2 mph - N/A   Mostly Cloudy
7:01 AM 68.0 °F - 64.4 °F 88% 30.00 in 8.0 mi SW 8.1 mph - N/A   Mostly Cloudy
7:24 AM 69.8 °F - 64.4 °F 83% 30.00 in 8.0 mi SW 8.1 mph - N/A   Mostly Cloudy
7:54 AM 70.0 °F - 64.9 °F 84% 29.99 in 9.0 mi WSW 9.2 mph - N/A   Overcast
8:40 AM 71.6 °F - 64.4 °F 78% 30.02 in 10.0 mi WSW 11.5 mph - N/A   Mostly Cloudy
8:54 AM 71.1 °F - 64.9 °F 81% 30.00 in 10.0 mi WSW 6.9 mph - N/A   Mostly Cloudy
9:54 AM 73.9 °F - 66.0 °F 76% 30.00 in 10.0 mi SW 8.1 mph - N/A   Mostly Cloudy
10:30 AM 75.2 °F - 66.2 °F 73% 30.03 in 10.0 mi SW 6.9 mph - N/A   Scattered Clouds
10:54 AM 75.9 °F - 66.0 °F 71% 30.00 in 10.0 mi South 4.6 mph - N/A   Partly Cloudy
11:54 AM 78.1 °F - 66.9 °F 68% 29.99 in 10.0 mi SSW 10.4 mph - N/A   Scattered Clouds
12:54 PM 80.1 °F 82.1 °F 66.0 °F 62% 29.96 in 10.0 mi SSW 12.7 mph 18.4 mph N/A   Scattered Clouds
1:54 PM 81.0 °F 82.7 °F 64.9 °F 58% 29.95 in 10.0 mi South 11.5 mph 18.4 mph N/A   Scattered Clouds
2:54 PM 82.0 °F 84.1 °F 66.0 °F 58% 29.93 in 10.0 mi SSW 10.4 mph - N/A   Scattered Clouds
3:54 PM 82.9 °F 85.0 °F 66.0 °F 56% 29.91 in 10.0 mi South 15.0 mph 19.6 mph N/A   Scattered Clouds
4:54 PM 81.0 °F 82.7 °F 64.9 °F 58% 29.89 in 10.0 mi South 13.8 mph 20.7 mph N/A   Scattered Clouds
5:54 PM 81.0 °F 82.5 °F 64.0 °F 56% 29.88 in 10.0 mi South 12.7 mph - N/A   Clear
6:54 PM 80.1 °F 81.7 °F 64.0 °F 58% 29.89 in 10.0 mi SSW 15.0 mph - N/A   Partly Cloudy
7:54 PM 78.1 °F - 64.0 °F 62% 29.90 in 10.0 mi South 12.7 mph - N/A   Clear
8:54 PM 73.0 °F - 64.9 °F 76% 29.92 in 10.0 mi SSE 6.9 mph - N/A   Clear
9:54 PM 72.0 °F - 66.0 °F 81% 29.94 in 10.0 mi SSW 5.8 mph - N/A   Partly Cloudy
10:32 PM 71.6 °F - 62.6 °F 73% 29.99 in 10.0 mi WNW 16.1 mph - N/A   Overcast
10:54 PM 66.0 °F - 63.0 °F 90% 29.97 in 5.0 mi NNW 4.6 mph - 0.00 in Rain Rain
11:05 PM 66.2 °F - 64.4 °F 94% 29.98 in 1.8 mi NE 5.8 mph - 0.09 in Rain Heavy Rain
11:12 PM 66.2 °F - 64.4 °F 94% 29.97 in 3.0 mi North 4.6 mph - 0.14 in Rain Light Rain
11:54 PM 66.0 °F - 64.0 °F 93% 29.94 in 10.0 mi Calm Calm - 0.15 in   Overcast